Regional Weather Roundup
Issued by NWS Kansas City/Pleasant Hill, MO

Home | Current Version | Previous Version | Graphics & Text | Print | Product List | Glossary Off
Versions: 1 2 3 4 5 6 7 8 9 10 11 12 13 14 15 16 17 18 19 20 21 22 23 24 25 26 27 28 29 30 31 32 33 34 35 36 37 38 39 40 41 42 43 44 45 46 47 48 49 50

000
ASUS43 KEAX 190610
RWREAX

WEATHER ROUNDUP FOR EASTERN KANSAS AND NORTHWEST MISSOURI
NATIONAL WEATHER SERVICE KANSAS CITY/PLEASANT HILL MO
1200 AM CST MON FEB 19 2018

KSZ040-057-103>105-MOZ028-029-037-043-190700-
...KANSAS CITY METROPOLITAN AREA...

CITY           SKY/WX    TMP DP  RH WIND       PRES   REMARKS
K.C. INTL      CLOUDY    52  48  86 S18G25    29.68S
6HR MIN TEMP:  52; 6HR MAX TEMP:  56;

K.C. DOWNTOWN  CLOUDY    55  48  77 S14G24    29.69F
6HR MIN TEMP:  55; 6HR MAX TEMP:  58;

LEES SUMMIT    CLOUDY    53  50  89 S16       29.71S
6HR MIN TEMP:  52; 6HR MAX TEMP:  56;

OLATHE - IXD   CLOUDY    52  51  97 S22       29.69S
6HR MIN TEMP:  51; 6HR MAX TEMP:  54;

OLATHE - OJC   CLOUDY    52  50  93 S16G24    29.69S
6HR MIN TEMP:  51; 6HR MAX TEMP:  54;

LAWRENCE       CLOUDY    54  50  86 S21       29.65F

$$

MOZ001>008-011>017-020>025-030>033-038>040-044>046-053-054-190700-
...NORTHERN AND CENTRAL MISSOURI...

CITY           SKY/WX    TMP DP  RH WIND       PRES   REMARKS
ST. JOSEPH     CLOUDY    52  48  86 S17       29.66F
6HR MIN TEMP:  52; 6HR MAX TEMP:  55;

MOSBY          CLOUDY    54  46  76 S6        29.71F
WARRENSBURG    CLOUDY    54  50  87 S13       29.73F
WHITEMAN AFB   CLOUDY    55  50  85 S14G22    29.70S
6HR MIN TEMP:  51; 6HR MAX TEMP:  55;

CLINTON        CLOUDY    55  52  88 S14       29.77S
SEDALIA        CLOUDY    55  51  86 S16G26    29.77F
6HR MIN TEMP:  52; 6HR MAX TEMP:  55;

WARSAW         NOT AVBL
CHILLICOTHE      N/A     53  37  54 S9        29.73S
6HR MIN TEMP:  51; 6HR MAX TEMP:  53;

KIRKSVILLE     CLOUDY    50  41  71 S12       29.77S
6HR MIN TEMP:  45; 6HR MAX TEMP:  51;


$$

MOZ041-047>049-056>058-063>065-088>090-097-190700-
...EASTERN AND SOUTHERN MISSOURI...

CITY           SKY/WX    TMP DP  RH WIND       PRES   REMARKS
ST. LOUIS INTL CLOUDY    51  43  74 S12G20    29.88S
6HR MIN TEMP:  48; 6HR MAX TEMP:  51;

SPIRIT OF STL  CLOUDY    53  45  74 S10G17    29.88R
COLUMBIA       CLOUDY    53  47  79 S15       29.80S
JEFFERSON CITY CLOUDY    54  47  77 S16G23    29.82F
ROLLA          CLOUDY    50  48  93 S18G33    29.87S
OSAGE BEACH    CLOUDY    51  49  92 S8        29.84S
SPRINGFIELD    CLOUDY    50  48  93 S18       29.83S
JOPLIN         CLOUDY    57  56  96 S22G39    29.78S
WEST PLAINS    CLOUDY    50  48  93 S13G23    29.96R

$$

IAZ060-094-KSZ022-034>040-054-083-096-NEZ052-066-093-190700-
...KANSAS...SOUTHEAST NEBRASKA AND IOWA...

CITY           SKY/WX    TMP DP  RH WIND       PRES   REMARKS
TOPEKA         CLOUDY    54  51  90 S18G29    29.62F
6HR MIN TEMP:  53; 6HR MAX TEMP:  54;

MANHATTAN      CLOUDY    57  51  80 S25G36    29.55F
EMPORIA        CLOUDY    51  50  96 S23G31    29.63F FOG
CHANUTE        CLOUDY    54  53  97 S21G32    29.73S FOG
WICHITA        CLOUDY    56  55  97 S22G29    29.60F
OMAHA          CLOUDY    35  30  82 N15       29.66R WCI  25
LINCOLN        FLURRIES  34  28  79 N16       29.65R WCI  24
FALLS CITY     CLOUDY    53  46  77 S14G24    29.60F
LAMONI         CLOUDY    48  33  56 SE6       29.70R
DES MOINES     CLOUDY    44  33  65 S8        29.70R

$$





USA.gov is the U.S. government's official web portal to all federal, state and local government web resources and services.